Вернуться в каталог

STARLINK-35213

АктивенСвязьVLEO
NORAD 65638·PAYLOAD·🇺🇸 United States

Запущен Sep 18, 2025 с Cape Canaveral Space Force Station

Loading…

Ближайшие Пролёты (ближайшие 24 часа)

TLE

СвежийSource: CelesTrak SupGP

Эпоха: Sep 14, 2026, 22:48 UTC

1 65638C 25210S   26257.95048611 -.00065529  00000+0 -19360-2 0  2570
2 65638  53.1565 143.6696 0001332  97.7933  82.2470 15.34424362    15

Отслеживайте STARLINK-35213 в реальном времени с AllMySat

Download on the App Store